www.pogodaiklimat.ru

Погода и климат >> Архив погоды >> Россия >> Магаданская область >> Коркодон


ПОГОДА в Коркодоне

  • Прогноз погоды в Коркодоне
  • Монитор погоды в Коркодоне

АРХИВ ПОГОДЫ в Коркодоне

Время (UTC), дата Ветер
(напр.,м/с)
 
Видим.   Явления Облачность Т
(С)
Тd
(С)
f
(%)
Тe
(С)
Тes
(С)
Комфортность P
(гПа)
Po
(гПа)
Тmin
(С)
Tmax
(С)
R
(мм)
R24
(мм)
S
(см)
12 13.05 С 2 50 км 9/4 1000 м
[Sc Ac lent Ci fib]
-1.1 -7.5 62 -4 -4 1017.0 1004.5
15 13.05 С 1 50 км 9/3 1000 м
[Sc Ac trans Ci fib]
-2.6 -7.9 67 -4 -4 1018.1 1005.4
18 13.05 З 1 50 км 9/3
[Sc Ac lent Ci fib]
-2.9 -8.0 68 -5 -5 1018.6 1006.0
21 13.05 З 3 50 км 9/0
[Ci fib]
-0.2 -8.4 54 -4 -1 1018.8 1006.3 -3.4
00 14.05 З 2 50 км 9/0
[Ci fib]
+4.0 -8.7 39 +2 +10 опасность
простуды
1018.5 1006.2
03 14.05 З 4 50 км 9/3 1000 м
[Cu med, cong Ci fib]
+4.2 -7.8 41 +1 +5 1018.5 1006.1
06 14.05 СЗ 4
{10}
50 км 9/3 1000 м
[Cu med, cong Ac trans Ci fib]
+4.4 -8.5 39 +1 +2 1019.0 1006.7
09 14.05 СЗ 3 50 км 3/0
[Ci fib]
+2.4 -8.6 44 -1 -0 1020.2 1007.8 +5.3
12 14.05 С 1 50 км 8/3 1000 м
[Sc Ci fib]
-1.5 -8.2 60 -3 -3 1021.5 1008.9
15 14.05 штиль 0 50 км 6/0
[Ci fib]
-4.6 -8.2 76 -5 -5 1022.7 1009.9
18 14.05 З 1 50 км 3/0
[Ci fib]
-6.9 -7.7 94 -9 -9 1023.5 1010.6
21 14.05 З 1 50 км ясно -0.2 -6.8 61 -2 +3 1023.2 1010.7 -7.4
00 15.05 Ю 2 50 км 3/3 1000 м
[Cu med, cong]
+3.8 -8.9 39 +2 +9 1021.9 1009.5
03 15.05 З 2 50 км 3/0
[Ci fib]
+7.0 -12.2 24 +6 +16 опасность
простуды
1019.7 1007.5
06 15.05 Ю 1 50 км ясно +8.8 -10.7 24 +9 +15 1018.4 1006.3
09 15.05 штиль 0 50 км 3/0
[Ci fib]
+8.5 -10.4 25 +9 +10 1017.9 1005.8 +9.1
12 15.05 СВ 2 50 км 3/0
[Ci fib]
+0.2 -8.0 54 -3 -3 1018.7 1006.2
15 15.05 ЮВ 1 50 км 9/0
[Ci fib]
-2.0 -6.4 72 -4 -4 1018.4 1005.8
18 15.05 В 2 50 км 6/0
[Ci fib]
-2.1 -7.0 69 -6 -5 1018.4 1005.8
21 15.05 В 2 50 км 3/0
[Ci fib]
+5.5 -8.8 35 +4 +8 1017.8 1005.5 -3.4
00 16.05 ЮВ 4 50 км 4/0
[Ci fib]
+10.9 -7.5 27 +9 +15 1015.3 1003.4
03 16.05 ЮВ 3 50 км 9/0
[Ci fib]
+14.5 -7.1 22 +14 +21 1013.0 1001.1
06 16.05 ЮЗ 2 50 км 9/0
[Ci fib]
+17.1 -6.7 19 +18 +22 1010.7 999.0
09 16.05 Ю 1 50 км 9/0
[Ci fib]
+15.7 -4.8 24 +17 +17 1010.0 998.3 +17.6
12 16.05 штиль 0 50 км 9/3 1000 м
[Sc Ci fib]
+5.6 -2.0 58 +5 +5 1010.4 998.2
15 16.05 В 1 50 км 9/6 1000 м
[Sc Ci fib]
+2.7 -2.2 70 +1 +1 1010.5 998.2
18 16.05 ЮВ 2 50 км 9/6 1000 м
[Cb cap Ci fib]
+9.9 -1.5 45 +9 +9 1010.4 998.4
21 16.05 В 1 50 км 9/6 1000 м
[Sc Ci fib]
+10.5 -0.3 47 +11 +12 1011.0 999.1 +2.6
00 17.05 З 2 50 км 9/5 1000 м
[Sc Ac trans Ci fib]
+12.5 +0.2 43 +12 +15 1011.4 999.5
03 17.05 З 2 20 км дым 9/4 1000 м
[Sc Ac trans Ci fib]
+13.6 +0.2 40 +13 +17 1010.7 998.9
06 17.05 З 2 20 км слаб. ливневой дождь 10/5 1000 м
[Cb cap Ac und]
+9.1 +2.4 63 +8 +8 1010.7 998.7
09 17.05 Ю 1 50 км в посл. час ливневой дождь 10/10 600 м
[Cb cap]
+7.3 +5.1 86 +6 +6 1012.4 1000.3 +14.4 0.5
12 17.05 Ю 1 50 км {ливн. осадки} 10/10 600 м
[Cb cap]
+5.0 +2.5 84 +4 +4 1013.1 1000.9
15 17.05 З 1 20 км слаб. ливневой дождь 10/10 600 м
[Cb cap]
+2.4 +1.8 96 +1 +1 1014.0 1001.7
18 17.05 З 1 10 км слаб. ливневой дождь 10/10 600 м
[Cb cap]
+0.8 +0.4 97 -1 -1 1014.9 1002.5
21 17.05 З 2 10 км слаб. ливневой дождь со снегом 10/10 600 м
[Cb cap]
+0.4 -0.2 96 -3 -3 1015.9 1003.5 +0.3 2
00 18.05 З 2 2000 м ливневой снег 10/10 600 м
[Cb cap]
-0.3 -0.9 96 -4 -4 1017.1 1004.6 -0.5
03 18.05 З 3 10 км слаб. ливневой снег 9/8 600 м
[Cb cap Ac trans]
+1.1 -0.3 90 -3 -2 1017.9 1005.5
06 18.05 З 3 10 км слаб. ливневой снег 10/10 600 м
[Cb cap]
+1.4 -0.8 85 -3 -3 1017.8 1005.4
09 18.05 Ю 1 4000 м слаб. ливневой снег 10/10 600 м
[Cb cap]
+0.2 -0.4 96 -2 -2 1018.1 1005.6 +1.9 2
12 18.05 штиль 0 50 км {ливн. осадки} 10/10 600 м
[Cb cap]
-0.3 -1.6 91 -2 -2 1018.2 1005.7
15 18.05 В 1 10 км слаб. ливневой снег 10/10 600 м
[Cb cap]
-1.7 -2.5 94 -4 -4 1017.7 1005.1
18 18.05 В 1 50 км {ливн. осадки} 10/10 600 м
[Cb cap]
-1.8 -3.6 87 -4 -4 1016.8 1004.3
21 18.05 В 3 50 км 10/10 600 м
[Cb cap]
-0.7 -3.9 79 -5 -5 1015.5 1003.0 -2.0 1 0
00 19.05 СВ 3 50 км 9/9 600 м
[Cb cap]
+1.8 -4.1 65 -2 -1 1013.2 1000.8
03 19.05 С 2 50 км 9/9 600 м
[Cb cap]
+2.9 -4.1 60 0 +1 1010.8 998.5
06 19.05 В 2 20 км слаб. ливневой снег 10/10 600 м
[Cb cap]
+1.9 -3.6 67 -1 -1 1008.6 996.3
09 19.05 С 1 50 км {ливн. осадки} 10/10 600 м
[Cb cap]
+1.0 -4.4 67 -1 -1 1007.4 995.1 +3.1 0.7
12 19.05 С 2 20 км слаб. ливневой снег 10/10 600 м
[Cb cap]
0.0 -3.7 76 -3 -3 1006.6 994.3
15 19.05 С 4 20 км слаб. ливневой снег 10/10 600 м
[Cb cap]
-0.9 -3.6 82 -6 -6 1005.5 993.1
18 19.05 СЗ 1 10 км слаб. ливневой снег 10/10 600 м
[Cb cap]
-1.8 -3.5 88 -4 -4 1005.2 992.8
21 19.05 С 3 4000 м слаб. ливневой снег {метель} 10/10 600 м
[Cb cap]
-1.9 -5.4 77 -7 -7 1005.7 993.2 -2.2 3 2
00 20.05 З 2 10 км слаб. ливневой снег {метель} 10/10 600 м
[Cb cap]
-1.2 -5.3 74 -5 -5 1007.2 994.8
03 20.05 З 2 50 км {ливн. осадки} 9/9 600 м
[Cb cap]
-0.1 -6.4 62 -3 -2 1009.3 996.9
06 20.05 З 3 20 км слаб. ливневой снег 10/10 600 м
[Cb cap]
-1.8 -6.5 70 -7 -7 1012.3 999.8
09 20.05 З 2 20 км слаб. ливневой снег 10/10 600 м
[Cb cap]
-2.4 -6.9 71 -6 -6 1015.5 1002.9 +0.1 0.5

 

Местоположение метеостанции Коркодон (Магаданская область, Россия): широта 64.75 долгота 153.90 высота над уровнем моря 99 м.

В архиве по умолчанию представлена погода в Коркодоне за последнюю неделю. Архивные данные за месяц целиком и за предыдущие месяцы, начиная с января 2011 года, Вы можете получить, выбрав интересующий диапазон дат из раскрывающегося списка и нажав кнопку "Ввод!".


*Определитесь, кто Вы:
робот инопланетянин человек

Внимание! Время в таблицах - всемирное. Для получения местного времени необходимо прибавить поправку, которая равна 11 ч.

Смотрите также архив погоды в соседних городах и на ближайших метеорологических станциях:

Погода в Балыгычане (Магаданская область, Россия) (94 км)
Погода в Зырянке (Якутия, Россия) (177 км)
Погода в Сеймчане (Магаданская область, Россия) (217 км)
Погода в Омсукчане (Магаданская область, Россия) (265 км)
Погода в Среднекане (Магаданская область, Россия) (268 км)
Погода в Совхозе Эльген (Магаданская область, Россия) (271 км)
Погода в Лабазной (Магаданская область, Россия) (276 км)
Погода в Среднеколымске (Якутия, Россия) (300 км)
Погода в Омолоне (Чукотка, Россия) (315 км)
Погода в Ягодной (Магаданская область, Россия) (327 км)

Пояснения к столбцам:

Ветер - указаны скорость ветра в м/с - средняя за 10 мин, порывы в срок и между сроками (в фигурных скобках) и направление, откуда дует ветер: С - северный, СВ - северо-восточный, В - восточный, ЮВ - юго-восточный, Ю - южный, ЮЗ - юго-западный, З - западный, СЗ - северо-западный.
Видимость - горизонтальная дальность видимости в метрах или километрах. При видимости от 1 до 10 км при отсутствии осадков обычно наблюдается дымка, при ухудшении видимости до 1 км и менее - туман. В сухую погоду видимость может ухудшаться дымом, пылью или мглою.
Явления - указаны атмосферные явления, наблюдавшиеся в срок или в последний час перед сроком; фигурными скобками обозначены явления, наблюдавшиеся между сроками (за 1-3 часа до срока); квадратными скобками обозначены град или гололедные отложения с указанием их диаметра в мм.
Облачность - указаны через наклонную черту общая и нижняя облачность в баллах и высота нижней границы облаков в метрах; квадратными скобками обозначены формы облаков: Ci - перистые, Cs - перисто-слоистые, Cc - перисто-кучевые, Ac - высококучевые, As - высокослоистые, Sc - слоисто-кучевые, Ns - слоисто-дождевые, Cu - кучевые, Cb - кучево-дождевые. Подробнее классификацию облаков см. в Атласе облаков (PDF).
T - Температура воздуха - температура, измеренная на высоте 2 м над землей.
Td - Температура точки росы - температура, при понижении до которой содержащийся в воздухе водяной пар достигнет насыщения.
f - Относительная влажность воздуха - влажноcть воздуха, измеренная на высоте 2 м над землей.
Te - Эффективная температура - температура, которую ощущает одетый по сезону человек в тени. Характеристика душности погоды. При расчете учитывается влияние влажности воздуха и скорости ветра на теплоощущения человека.
Tes - Эффективная температура на солнце - температура, которую ощущает человек, с поправкой на солнечный нагрев. Характеристика знойности погоды. Зависит от высоты солнца над горизонтом, облачности и скорости ветра. Ночью, в пасмурную погоду, а также при ветре 12 м/с и более поправка равна нулю.
P - Атмосферное давление - приведенное к уровню моря атмосферное давление.
Po - Атмосферное давление - измеренное на уровне метеостанции атмосферное давление.
Tmin - Минимальная температура - минимум температуры воздуха на высоте 2 м над землей.
Tmax - Максимальная температура - максимум температуры воздуха на высоте 2 м над землей.
R - Количество осадков - Количество выпавших осадков за период времени, мм. При наведении курсора мыши на число - период времени, за который выпало указанное количество осадков.
R24 - Количество осадков - Количество выпавших осадков за 24 часа, мм.
S - Снежный покров - Высота снежного покрова, см. При наведении курсора мыши на число - состояние снежного покрова и степень покрытия местности в баллах.